Volver al catálogo

FENGYUN 1C DEB

ActivoPO
NORAD 36995·DEBRIS·🇨🇳 China

Lanzado May 10, 1999 desde Taiyuan Satellite Launch Center

Loading…

Próximos Pases (próximas 24 horas)

TLE

EnvejeciendoSource: Space-Track

Época: Sep 3, 2026, 20:11 UTC

1 36995U 99025ECB 26246.84160025  .00000178  00000-0  13441-3 0  9995
2 36995  98.3059 108.8280 0038206 277.2248  82.4579 14.04922005672799

Sigue FENGYUN 1C DEB en tiempo real con AllMySat

Download on the App Store